www.pogodaiklimat.ru

Погода и климат >> Архив погоды >> Россия >> Кировская область >> Фаленки


ПОГОДА в Фаленках

  • Прогноз погоды в Фаленках
  • Монитор погоды в Фаленках
  • Климат города

АРХИВ ПОГОДЫ в Фаленках

Время (UTC), дата Ветер
(напр.,м/с)
 
Видим.   Явления Облачность Т
(С)
Тd
(С)
f
(%)
Тe
(С)
Тes
(С)
Комфортность P
(гПа)
Po
(гПа)
Тmin
(С)
Tmax
(С)
R
(мм)
R24
(мм)
S
(см)
03 17.10 СЗ 5-9
{10}
20 км 8/4 600 м
[Cb cap Ci fib]
+8.0 +5.8 86 +4 +4 1008.1 986.7 +6.5
06 17.10 СЗ 6-11
{11}
23 км 10/6 600 м
[Cb cap Ci fib]
+8.8 +5.9 82 +5 +5 1009.4 987.9
09 17.10 СЗ 5-11
{16}
45 км 6/6 1000 м
[Sc]
+7.8 +0.4 59 +4 +5 1015.3 993.5
12 17.10 С 5-11
{13}
40 км 9/9 1000 м
[Sc]
+7.2 +0.6 63 +4 +4 1019.0 997.2
15 17.10 С 4-7
{11}
10 км 6/6 600 м
[Sc]
+5.2 +0.3 71 +1 +1 1021.1 999.1 +9.0
18 17.10 СЗ 3-5
{7}
10 км 1/0
[Ac trans]
+3.5 0.0 78 -0 -0 1022.3 1000.1
21 17.10 СЗ 3-5
{6}
10 км 1/0
[Ac trans]
+1.2 -0.5 88 -3 -3 1022.5 1000.2
00 18.10 СЗ 2-4
{5}
10 км 10/0
[Ac und]
+1.1 -0.3 90 -2 -2 1023.0 1000.7
03 18.10 СЗ 2-3
{5}
22 км 10/0
[Ac trans Ci fib]
+0.2 -0.7 94 -4 -4 1023.3 1000.8 -0.2
06 18.10 СЗ 2-4
{4}
40 км 3/0
[Ac trans Ci fib]
+2.1 -0.4 84 -1 0 1022.5 1000.2 -0.9
09 18.10 СЗ 2-4
{5}
50 км 6/0
[Ac trans Ci fib]
+8.7 +1.5 61 +7 +9 1020.4 998.7
12 18.10 ЮЗ 3-4
{6}
45 км 10/0
[Ac und]
+8.0 +2.5 68 +6 +6 1018.4 996.6
15 18.10 ЮЗ 4-7
{8}
10 км в посл. час ливневой дождь 10/3 600 м
[Cb cap Ac As]
+6.9 +3.6 79 +3 +3 1015.2 993.4 +9.3 0.0
18 18.10 З 2-5
{9}
10 км {ливн. осадки} 6/0
[Ci]
+5.8 +3.4 85 +3 +3 1013.5 991.7
21 18.10 З 2-5
{6}
10 км ясно +5.3 +4.4 94 +3 +3 1012.1 990.3
00 19.10 ЮЗ 2-3
{5}
4000 м дымка ясно +4.0 +3.5 97 +1 +1 1011.9 989.8
03 19.10 З 1-2
{4}
1000 м дымка 3/0
[Ci fib]
+4.5 +4.3 99 +3 +3 1010.8 989.0 +3.7
06 19.10 З 3-6
{7}
300 м туман ?/? +5.8 +5.8 100 +2 +2 1010.0 988.2
09 19.10 З 4-8
{8}
14 км {туман} 4/3 600 м
[Sc diur, vesp Ci fib]
+9.2 +7.1 87 +6 +7 1008.3 986.9
12 19.10 З 3-6
{9}
24 км {туман} 3/1 600 м
[Sc diur, vesp Ac lent]
+10.7 +7.4 80 +9 +9 1006.7 985.5
15 19.10 З 4-8
{8}
10 км в посл. час ливневой дождь 10/8 600 м
[Cb cap Ac trans]
+11.0 +7.3 78 +9 +9 1007.0 985.8 +11.5 0.0
18 19.10 СЗ 3-6
{8}
10 км {ливн. осадки} 6/0
[Ac trans]
+8.5 +5.6 82 +6 +6 1007.3 985.9
21 19.10 СЗ 4-6
{9}
10 км 3/0
[Ac trans]
+6.2 +4.8 91 +2 +2 1008.0 986.5
00 20.10 З 2-4
{7}
10 км 3/0
[Ci fib]
+4.8 +4.1 95 +2 +2 1008.4 986.7
03 20.10 З 2-3
{5}
10 км 10/8 600 м
[Cb cap Ac As]
+4.4 +3.9 97 +1 +1 1008.3 986.6 +4.0
06 20.10 С 4-6
{8}
14 км 8/6 600 м
[Cb cap Ac trans]
+4.6 +2.6 87 0 +1 1009.4 987.6
09 20.10 СЗ 3-5
{7}
13 км в посл. час ливневой дождь 10/8 600 м
[Cb cap Ac trans]
+5.6 +2.9 83 +2 +3 1009.8 988.0
12 20.10 С 3-5
{8}
15 км {ливн. осадки} 6/3 600 м
[Cb cap Ac trans]
+6.0 +1.5 73 +3 +3 1011.0 989.2
15 20.10 СЗ 2-4
{8}
10 км {ливн. осадки} 8/0
[Ac trans]
+3.4 +1.9 90 0 0 1012.5 990.5 +6.7 0.6
18 20.10 СЗ 3-5
{6}
10 км {ливн. осадки} 10/0
[Ac und]
+2.4 +1.9 96 -2 -2 1014.2 992.2
21 20.10 С 3-4
{6}
10 км 10/0
[Ac und]
+2.4 +1.1 91 -2 -2 1015.8 993.7
00 21.10 С 3-5
{6}
10 км в посл. час ливневой снег 4/4 600 м
[Cb cap]
+0.6 -0.5 92 -4 -4 1018.0 995.8
03 21.10 С 3-5
{6}
20 км {ливн. осадки} 10/10 600 м
[Cb cap]
+0.2 -1.8 86 -4 -4 1020.3 997.8 -0.3 0.3
06 21.10 С 3-6
{6}
29 км {ливн. осадки} 10/10 1000 м
[Sc]
-0.4 -1.9 90 -5 -5 1021.8 999.3 -0.9
09 21.10 С 3-5
{6}
35 км 10/10 1000 м
[Sc]
+1.9 -0.9 82 -2 -2 1022.8 1000.5
12 21.10 СЗ 2-4
{6}
27 км 9/6 600 м
[Cb cap Ac trans Ci fib]
+2.5 -0.2 82 -1 -1 1023.5 1001.3
15 21.10 СЗ 2-4
{6}
10 км 10/8 600 м
[Cb cap Ac As]
+1.1 -0.3 90 -2 -2 1024.2 1001.9 +3.1
18 21.10 СЗ 2-4
{5}
4000 м слабый ливневой снег 10/10 600 м
[Cb cap]
+0.8 -1.2 86 -3 -3 1025.8 1003.3
21 21.10 З 1-2
{4}
10 км {ливн. осадки} 10/10 600 м
[Cb cap]
0.0 -1.5 90 -2 -2 1026.0 1003.4
00 22.10 З 1-3
{4}
10 км {ливн. осадки} 10/10 600 м
[Cb cap]
+0.1 -1.4 90 -2 -2 1026.1 1003.5
03 22.10 ЮЗ 2-4
{6}
10 км 10/10 600 м
[Cb cap]
-0.2 -2.2 86 -4 -4 1025.2 1002.6 -0.5 0.0
06 22.10 ЮЗ 2-5
{5}
35 км {ливн. осадки} 10/10 600 м
[Cb cap]
-0.3 -1.5 92 -4 -4 1024.6 1002.1 -1.2
09 22.10 З 4-9
{9}
40 км 10/10 600 м
[Cb cap]
+3.4 -0.7 74 -1 -1 1021.4 999.2
12 22.10 ЮЗ 5-9
{10}
40 км 10/10 600 м
[Sc]
+4.3 +0.1 74 -0 -0 1018.2 996.1
15 22.10 З 5-9
{10}
10 км 10/10 600 м
[Sc]
+4.2 -0.0 74 -1 -1 1015.4 993.3 +4.8 0.0
18 22.10 З 3-7
{11}
10 км 10/0
[Cs]
+4.5 0.0 73 +1 +1 1013.0 991.2
21 22.10 З 3-7
{9}
10 км 10/0
[Cs]
+3.4 -0.7 74 -0 -0 1011.1 989.1
00 23.10 ЮЗ 4-6
{8}
10 км 4/0
[Ci fib]
+2.5 -0.2 82 -2 -2 1009.2 987.3
03 23.10 З 2-4
{6}
20 км 3/0
[Ci fib]
+0.3 -0.5 94 -3 -3 1008.5 986.3 +0.1
06 23.10 ЮЗ 6-9
{9}
19 км 8/8 600 м
[Sc]
+3.4 +1.3 86 -2 -2 1007.7 985.8
09 23.10 ЮЗ 4-7
{11}
17 км 10/10 600 м
[Sc]
+5.4 +3.0 85 +1 +1 1005.7 984.0
12 23.10 ЮЗ 5-8
{10}
10 км слабый ливневой дождь 10/10 600 м
[Cb cap]
+6.0 +5.3 95 +1 +1 1003.6 982.1
15 23.10 ЮЗ 4-5
{8}
4000 м слабый ливневой дождь 10/10 600 м
[Cb cap]
+6.5 +6.1 97 +3 +3 1002.2 980.8 +6.7 3
18 23.10 ЮЗ 4-6
{7}
4000 м слабый ливневой дождь 10/10 600 м
[Cb cap]
+6.6 +6.2 97 +3 +3 1000.4 979.0
21 23.10 ЮЗ 5-8
{10}
4000 м слабый ливневой дождь 10/10 600 м
[Cb cap]
+5.3 +4.8 97 +1 +1 1000.2 978.6

 

Местоположение метеостанции Фаленки (Кировская область, Россия): широта 58.35 долгота 51.57 высота над уровнем моря 178 м.

В архиве по умолчанию представлена погода в Фаленках за последнюю неделю. Архивные данные за месяц целиком и за предыдущие месяцы, начиная с января 2011 года, Вы можете получить, выбрав интересующий диапазон дат из раскрывающегося списка и нажав кнопку "Ввод!".


*Определитесь, кто Вы:
робот инопланетянин человек

Внимание! Время в таблицах - всемирное. Для получения местного времени необходимо прибавить поправку, которая в Фаленках равна 3 ч.

Смотрите также архив погоды в соседних городах и на ближайших метеорологических станциях:

Погода в Глазове (Удмуртия, Россия) (64 км)
Погода в Унях (Кировская область, Россия) (67 км)
Погода в Белой Холунице (Кировская область, Россия) (68 км)
Погода в Кумене (Кировская область, Россия) (101 км)
Погода в Нагорске (Кировская область, Россия) (116 км)
Погода в Кирове (Кировская область, Россия) (116 км)
Погода в Кирсе (Кировская область, Россия) (118 км)
Погода в Селтах (Удмуртия, Россия) (122 км)
Погода в Игре (Удмуртия, Россия) (127 км)
Погода в Нолинске (Кировская область, Россия) (131 км)

Пояснения к столбцам:

Ветер - указаны скорость ветра в м/с - средняя за 10 мин, порывы в срок и между сроками (в фигурных скобках) и направление, откуда дует ветер: С - северный, СВ - северо-восточный, В - восточный, ЮВ - юго-восточный, Ю - южный, ЮЗ - юго-западный, З - западный, СЗ - северо-западный.
Видимость - горизонтальная дальность видимости в метрах или километрах. При видимости от 1 до 10 км при отсутствии осадков обычно наблюдается дымка, при ухудшении видимости до 1 км и менее - туман. В сухую погоду видимость может ухудшаться дымом, пылью или мглою.
Явления - указаны атмосферные явления, наблюдавшиеся в срок или в последний час перед сроком; фигурными скобками обозначены явления, наблюдавшиеся между сроками (за 1-3 часа до срока); квадратными скобками обозначены град или гололедные отложения с указанием их диаметра в мм.
Облачность - указаны через наклонную черту общая и нижняя облачность в баллах и высота нижней границы облаков в метрах; квадратными скобками обозначены формы облаков: Ci - перистые, Cs - перисто-слоистые, Cc - перисто-кучевые, Ac - высококучевые, As - высокослоистые, Sc - слоисто-кучевые, Ns - слоисто-дождевые, Cu - кучевые, Cb - кучево-дождевые. Подробнее классификацию облаков см. в Атласе облаков (PDF).
T - Температура воздуха - температура, измеренная на высоте 2 м над землей.
Td - Температура точки росы - температура, при понижении до которой содержащийся в воздухе водяной пар достигнет насыщения.
f - Относительная влажность воздуха - влажноcть воздуха, измеренная на высоте 2 м над землей.
Te - Эффективная температура - температура, которую ощущает одетый по сезону человек в тени. Характеристика душности погоды. При расчете учитывается влияние влажности воздуха и скорости ветра на теплоощущения человека.
Tes - Эффективная температура на солнце - температура, которую ощущает человек, с поправкой на солнечный нагрев. Характеристика знойности погоды. Зависит от высоты солнца над горизонтом, облачности и скорости ветра. Ночью, в пасмурную погоду, а также при ветре 12 м/с и более поправка равна нулю.
P - Атмосферное давление - приведенное к уровню моря атмосферное давление.
Po - Атмосферное давление - измеренное на уровне метеостанции атмосферное давление.
Tmin - Минимальная температура - минимум температуры воздуха на высоте 2 м над землей.
Tmax - Максимальная температура - максимум температуры воздуха на высоте 2 м над землей.
R - Количество осадков - Количество выпавших осадков за период времени, мм. При наведении курсора мыши на число - период времени, за который выпало указанное количество осадков.
R24 - Количество осадков - Количество выпавших осадков за 24 часа, мм.
S - Снежный покров - Высота снежного покрова, см. При наведении курсора мыши на число - состояние снежного покрова и степень покрытия местности в баллах.